Location: Coll
(42.4728°N, 0.7714°E)
Time: 07:28:43
(UTC+00:00)

ADEOS Rocket - Pass Details

Date: 23 October 2020
Orbit: 859 x 1306 km, 98.7° (Epoch: 23 November)

Event Time Altitude Azimuth Distance (km) Brightness Sun altitude
Rises 05:13:58 0° 203° (SSW) 3,486 5.7 -12.8°
Reaches altitude 10° 05:16:59 10° 220° (SW) 2,517 4.8 -12.2°
Maximum altitude 05:21:03 21° 268° (W) 1,850 3.9 -11.5°
Drops below altitude 10° 05:25:07 10° 316° (NW) 2,507 4.7 -10.7°
Sets 05:28:08 0° 332° (NNW) 3,468 5.6 -10.2°
